Location: Unspecified
(32.8373°N, 0.0000°E)
Time: 18:51:58
(UTC+00:00)

Injun/Solrad 3 - Visible Passes

Search period start: 04 April 2026 00:00
Search period end: 14 April 2026 00:00
Orbit: 870 x 986 km, 66.8° (Epoch: 29 March)

Date Brightness Start Highest point End Pass type
(mag) Time Alt. Az. Time Alt. Az. Time Alt. Az.
4 Apr 10.5 01:42:00 13° N 01:42:00 13° N 01:42:39 10° N visible
5 Apr 10.5 01:52:33 11° N 01:52:33 11° N 01:53:00 10° N visible
8 Apr 10.7 00:40:22 10° N 00:40:22 10° N 00:40:29 10° N visible
9 Apr 10.7 00:50:46 11° N 00:50:46 11° N 00:50:58 10° N visible
11 Apr 10.7 23:38:07 11° N 23:38:07 11° N 23:38:18 10° N visible
12 Apr 10.6 23:48:20 12° N 23:48:20 12° N 23:48:51 10° N visible
13 Apr 10.6 23:58:26 12° NNW 23:58:26 12° NNW 23:59:05 10° N visible
